• In Hungary
  • List of Countries
  • For 7 days
  • Water Temperature
  • Satellite Maps
  • Weather Map
  • News
  • Weather Widgets
  • user-avatar
    Login

    Hourly Weather Livingstone

    Today, 18 September, Tuesday

    Time Temperature Precipitation Wind Pressure Humidity
    00:00 +26°C° 0 mm 2 mps 682 mmHg 18%
    01:00 +26°C° 0 mm 1 mps 682 mmHg 19%
    02:00 +25°C° 0 mm 1 mps 682 mmHg 20%
    03:00 +25°C° 0 mm 1 mps 682 mmHg 21%
    04:00 +24°C° 0 mm 1 mps 682 mmHg 21%
    05:00 +24°C° 0 mm 1 mps 681 mmHg 22%
    06:00 +26°C° 0 mm 2 mps 682 mmHg 20%
    07:00 +27°C° 0 mm 2 mps 683 mmHg 18%
    08:00 +30°C° 0 mm 2 mps 684 mmHg 17%
    09:00 +32°C° 0 mm 2 mps 684 mmHg 15%
    10:00 +36°C° 0 mm 2 mps 685 mmHg 12%
    11:00 +39°C° 0 mm 2 mps 685 mmHg 10%
    12:00 +40°C° 0 mm 3 mps 684 mmHg 9%
    13:00 +40°C° 0 mm 3 mps 684 mmHg 8%
    14:00 +42°C° 0 mm 3 mps 683 mmHg 7%
    15:00 +42°C° 0 mm 3 mps 683 mmHg 7%
    16:00 +41°C° 0 mm 4 mps 683 mmHg 7%
    17:00 +40°C° 0 mm 4 mps 682 mmHg 8%
    18:00 +37°C° 0 mm 4 mps 682 mmHg 10%
    19:00 +34°C° 0 mm 3 mps 682 mmHg 12%
    20:00 +31°C° 0 mm 3 mps 682 mmHg 14%
    21:00 +30°C° 0 mm 3 mps 682 mmHg 15%
    22:00 +29°C° 0 mm 2 mps 683 mmHg 16%
    23:00 +28°C° 0 mm 2 mps 683 mmHg 17%

    Tomorrow, 19 September, Wednesday

    Time Temperature Precipitation Wind Pressure Humidity
    00:00 +27°C° 0 mm 2 mps 683 mmHg 18%
    01:00 +27°C° 0 mm 1 mps 682 mmHg 19%
    02:00 +26°C° 0 mm 1 mps 682 mmHg 19%
    03:00 +25°C° 0 mm 1 mps 682 mmHg 20%
    04:00 +25°C° 0 mm 2 mps 682 mmHg 20%
    05:00 +24°C° 0 mm 2 mps 682 mmHg 21%
    06:00 +26°C° 0 mm 2 mps 682 mmHg 19%
    07:00 +28°C° 0 mm 2 mps 683 mmHg 18%
    08:00 +29°C° 0 mm 3 mps 684 mmHg 16%
    09:00 +33°C° 0 mm 3 mps 684 mmHg 13%
    10:00 +36°C° 0 mm 3 mps 685 mmHg 11%
    11:00 +40°C° 0 mm 4 mps 685 mmHg 8%
    12:00 +41°C° 0 mm 4 mps 684 mmHg 7%
    13:00 +42°C° 0 mm 4 mps 684 mmHg 7%
    14:00 +43°C° 0 mm 3 mps 683 mmHg 6%
    15:00 +42°C° 0 mm 4 mps 683 mmHg 6%
    16:00 +41°C° 0 mm 4 mps 682 mmHg 6%
    17:00 +41°C° 0 mm 4 mps 682 mmHg 7%
    18:00 +37°C° 0 mm 4 mps 682 mmHg 8%
    19:00 +35°C° 0 mm 3 mps 682 mmHg 10%
    20:00 +31°C° 0 mm 3 mps 683 mmHg 12%
    21:00 +30°C° 0 mm 3 mps 683 mmHg 13%
    22:00 +29°C° 0 mm 2 mps 683 mmHg 14%
    23:00 +28°C° 0 mm 2 mps 683 mmHg 15%

    Day after tomorrow, 20 September, Thursday

    Time Temperature Precipitation Wind Pressure Humidity
    00:00 +27°C° 0 mm 2 mps 683 mmHg 16%
    01:00 +27°C° 0 mm 2 mps 682 mmHg 16%
    02:00 +26°C° 0 mm 2 mps 682 mmHg 17%
    03:00 +26°C° 0 mm 2 mps 682 mmHg 18%
    04:00 +25°C° 0 mm 2 mps 682 mmHg 19%
    05:00 +24°C° 0 mm 2 mps 682 mmHg 20%
    06:00 +26°C° 0 mm 3 mps 682 mmHg 19%
    07:00 +28°C° 0 mm 3 mps 683 mmHg 18%
    08:00 +30°C° 0 mm 4 mps 684 mmHg 16%
    09:00 +33°C° 0 mm 4 mps 685 mmHg 14%
    10:00 +36°C° 0 mm 4 mps 685 mmHg 12%
    11:00 +38°C° 0 mm 4 mps 685 mmHg 9%
    12:00 +40°C° 0 mm 5 mps 685 mmHg 8%
    13:00 +41°C° 0 mm 5 mps 684 mmHg 7%
    14:00 +42°C° 0 mm 5 mps 683 mmHg 7%
    15:00 +41°C° 0 mm 5 mps 682 mmHg 7%
    16:00 +40°C° 0 mm 6 mps 682 mmHg 8%
    17:00 +39°C° 0 mm 6 mps 681 mmHg 9%
    18:00 +36°C° 0 mm 4 mps 681 mmHg 11%
    19:00 +33°C° 0 mm 3 mps 682 mmHg 14%
    20:00 +30°C° 0 mm 2 mps 682 mmHg 16%
    21:00 +29°C° 0 mm 2 mps 682 mmHg 17%
    22:00 +28°C° 0 mm 2 mps 683 mmHg 18%
    23:00 +28°C° 0 mm 2 mps 683 mmHg 19%

    21 September, Friday

    Time Temperature Precipitation Wind Pressure Humidity
    00:00 +27°C° 0 mm 2 mps 683 mmHg 21%
    01:00 +26°C° 0 mm 3 mps 683 mmHg 22%
    02:00 +26°C° 0 mm 3 mps 683 mmHg 24%
    03:00 +25°C° 0 mm 3 mps 683 mmHg 29%
    04:00 +25°C° 0 mm 3 mps 683 mmHg 33%
    05:00 +24°C° 0 mm 3 mps 683 mmHg 38%
    06:00 +26°C° 0 mm 4 mps 684 mmHg 36%
    07:00 +27°C° 0 mm 5 mps 684 mmHg 34%
    08:00 +29°C° 0 mm 6 mps 685 mmHg 32%
    09:00 +32°C° 0 mm 6 mps 686 mmHg 28%
    10:00 +34°C° 0 mm 6 mps 686 mmHg 23%
    11:00 +36°C° 0 mm 6 mps 686 mmHg 19%
    12:00 +37°C° 0 mm 5 mps 685 mmHg 18%
    13:00 +39°C° 0 mm 5 mps 684 mmHg 16%
    14:00 +40°C° 0 mm 5 mps 683 mmHg 14%
    15:00 +39°C° 0 mm 5 mps 683 mmHg 15%
    16:00 +39°C° 0 mm 5 mps 683 mmHg 15%
    17:00 +37°C° 0 mm 5 mps 682 mmHg 15%
    18:00 +35°C° 0 mm 4 mps 682 mmHg 18%
    19:00 +33°C° 0 mm 4 mps 683 mmHg 21%
    20:00 +30°C° 0 mm 3 mps 683 mmHg 23%
    21:00 +30°C° 0 mm 3 mps 683 mmHg 25%
    22:00 +29°C° 0 mm 3 mps 684 mmHg 26%
    23:00 +28°C° 0 mm 2 mps 684 mmHg 28%

    22 September, Saturday

    Time Temperature Precipitation Wind Pressure Humidity
    00:00 +28°C° 0 mm 2 mps 683 mmHg 29%
    01:00 +27°C° 0 mm 2 mps 683 mmHg 30%
    02:00 +27°C° 0 mm 2 mps 682 mmHg 32%
    03:00 +26°C° 0 mm 3 mps 682 mmHg 33%
    04:00 +26°C° 0 mm 3 mps 682 mmHg 35%
    05:00 +25°C° 0 mm 3 mps 682 mmHg 36%
    06:00 +26°C° 0 mm 4 mps 683 mmHg 34%
    07:00 +28°C° 0 mm 4 mps 684 mmHg 31%
    08:00 +29°C° 0 mm 5 mps 685 mmHg 28%
    09:00 +32°C° 0 mm 5 mps 685 mmHg 24%
    10:00 +34°C° 0 mm 5 mps 685 mmHg 20%
    11:00 +37°C° 0 mm 4 mps 685 mmHg 16%
    12:00 +38°C° 0 mm 4 mps 684 mmHg 14%
    13:00 +38°C° 0 mm 4 mps 684 mmHg 12%
    14:00 +40°C° 0 mm 4 mps 683 mmHg 11%
    15:00 +40°C° 0 mm 4 mps 682 mmHg 11%
    16:00 +39°C° 0 mm 5 mps 682 mmHg 11%
    17:00 +37°C° 0 mm 5 mps 682 mmHg 11%
    18:00 +35°C° 0 mm 4 mps 682 mmHg 13%
    19:00 +33°C° 0 mm 4 mps 682 mmHg 16%
    20:00 +30°C° 0 mm 3 mps 683 mmHg 18%
    21:00 +29°C° 0 mm 3 mps 683 mmHg 19%
    22:00 +28°C° 0 mm 2 mps 683 mmHg 21%
    23:00 +27°C° 0 mm 2 mps 683 mmHg 22%

    23 September, Sunday

    Time Temperature Precipitation Wind Pressure Humidity
    00:00 +27°C° 0 mm 2 mps 683 mmHg 23%
    01:00 +26°C° 0 mm 2 mps 682 mmHg 24%
    02:00 +26°C° 0 mm 2 mps 682 mmHg 25%
    03:00 +25°C° 0 mm 2 mps 682 mmHg 26%
    04:00 +24°C° 0 mm 2 mps 682 mmHg 28%
    05:00 +24°C° 0 mm 3 mps 682 mmHg 29%
    06:00 +25°C° 0 mm 4 mps 683 mmHg 27%
    07:00 +27°C° 0 mm 4 mps 684 mmHg 25%
    08:00 +29°C° 0 mm 5 mps 685 mmHg 23%
    09:00 +32°C° 0 mm 5 mps 685 mmHg 20%
    10:00 +34°C° 0 mm 5 mps 685 mmHg 17%
    11:00 +37°C° 0 mm 5 mps 685 mmHg 14%
    12:00 +39°C° 0 mm 5 mps 684 mmHg 13%
    13:00 +40°C° 0 mm 5 mps 684 mmHg 12%
    14:00 +40°C° 0 mm 5 mps 683 mmHg 10%
    15:00 +40°C° 0 mm 5 mps 683 mmHg 11%
    16:00 +39°C° 0 mm 5 mps 682 mmHg 11%
    17:00 +37°C° 0 mm 5 mps 682 mmHg 11%
    18:00 +35°C° 0 mm 4 mps 682 mmHg 14%
    19:00 +33°C° 0 mm 3 mps 682 mmHg 16%
    20:00 +29°C° 0 mm 2 mps 683 mmHg 19%
    21:00 +29°C° 0 mm 2 mps 683 mmHg 20%
    22:00 +28°C° 0 mm 2 mps 683 mmHg 21%
    23:00 +27°C° 0 mm 2 mps 683 mmHg 23%
    Show more